Tracking 28096 objects as of 29-Sep-2023
HD Live streaming from Space Station
objects crossing your sky now

BEIDOU 3M18

Track BEIDOU 3M18 now!
BEIDOU 3M18 is classified as:


NORAD ID: 43707
Int'l Code: 2018-093B
Perigee: 21,512.7 km
Apogee: 21,557.9 km
Inclination: 54.3 °
Period: 773.2 minutes
Semi major axis: 27906 km
RCS: Unknown
Launch date: November 18, 2018
Source: People's Republic of China (PRC)
Launch site: Xichang Space Center, China (XSC)
Your satellite tracking list
Your tracking list is empty




NASA's NSSDC Master Catalog

Two Line Element Set (TLE):
1 43707U 18093B   23271.34415831 -.00000013  00000-0  00000-0 0  9991
2 43707  54.2560 216.0049 0008103 310.2361  49.6592  1.86229640 33048
Source of the keplerian elements: AFSPC